Location: Ferchesar
(52.6477°N, 12.4298°E)
Time: 10:00:13
(UTC+01:00)

Tiros 1 despin weight - Pass Details

Date: 15 December 2021
Orbit: 592 x 641 km, 48.2° (Epoch: 19 January)

Event Time Altitude Azimuth Distance (km) Brightness Sun altitude
Rises 12:34:49 0° 268° (W) 2,857 ? 13.8°
Reaches altitude 10° 12:37:12 10° 262° (W) 1,945 ? 13.7°
Maximum altitude 12:41:25 43° 191° (S) 846 ? 13.7°
Drops below altitude 10° 12:45:35 10° 120° (ESE) 1,924 ? 13.6°
Sets 12:47:56 0° 114° (ESE) 2,821 ? 13.5°
